sat.trackr.live / text

‹ back to catalog

STARLINK-32871

NORAD 62924 · 2025-027T

PAYLOAD ACTIVE UNKNOWN

§ Identity

Operator
Country
US
Launch date
2025-02-08
Launch site
AFETR
Launch vehicle
Mass (kg)
RCS (m²)

Purposes: comms

External: N2YO · Heavens-Above · Gunter

§ Orbital elements

Epoch: 2026-05-25T03:14:58.463232Z

Period
94.27 min
Inclination
43.0018°
Eccentricity
0.0001130
Mean motion
15.27589207 rev/d
Perigee alt
482.2 km
Apogee alt
483.8 km
Semi-major
6,861.2 km
B*
3.3425e-4
RAAN
57.1414°
Arg perigee
276.5727°
Mean anomaly
83.4996°
Rev number
7,323

§ Raw data

STARLINK-328711 62924U 25027T   26145.13539888  .00008949  00000+0  33425-3 0  99912 62924  43.0018  57.1414 0001130 276.5727  83.4996 15.27589207 73234

JSON: /api/v1/satellites/62924 · /tle

For live sub-satellite position, see the globe view (requires WebGL).

§ Visibility from observer

Set your observer location to see the next 7 days of passes ≥ 10°. The values pass through the URL so the page stays shareable.

No JS? Fill the form by hand. The geolocation button needs JavaScript.